Regional Weather Roundup
Issued by NWS

Home | Current Version | Previous Version | Graphics & Text | Print | Product List | Glossary On
Versions: 1 2 3 4 5 6 7 8 9 10 11 12 13 14 15 16 17 18 19 20 21 22 23 24 25 26 27 28 29 30 31 32 33 34 35 36 37 38 39 40 41 42 43 44 45 46 47 48 49 50
000
ASUS45 KCYS 302310
RWRWY

WYOMING REGIONAL WEATHER ROUNDUP
NATIONAL WEATHER SERVICE CHEYENNE WY
500 PM MDT THU JUL 30 2015

NOTE:  "FAIR" INDICATES FEW OR NO CLOUDS BELOW 12,000 FEET
WITH NO SIGNIFICANT WEATHER AND/OR OBSTRUCTIONS TO VISIBILITY.

WYZ001-310000-
YELLOWSTONE NATIONAL PARK

CITY           SKY/WX    TMP DP  RH WIND       PRES   REMARKS
LK YELLOWSTONE   N/A     70  37  29 VRB5      30.52F
W YELLOWSTONE  NOT AVBL

$$
WYZ002>013-054>058-071-098>099-310000-
NORTHERN WYOMING

CITY           SKY/WX    TMP DP  RH WIND       PRES   REMARKS
JACKSON        FAIR      79  30  17 SW3       30.40F
CODY           FAIR      84  34  16 E10G17    30.29S
GREYBULL       FAIR      90  26  10 W8        30.21F
WORLAND        FAIR      89  27  10 N8        30.24F
SHERIDAN       FAIR      89  37  16 E7        30.24S
BUFFALO        FAIR      85  35  16 CALM      30.31S
GILLETTE       FAIR      87  34  15 CALM      30.26F
HULETT         FAIR      82  37  20 N6        30.28S
NEWCASTLE      FAIR      82  30  15 SW8       30.26F

$$
WYZ014>020-022>026-101>103-310000-
CENTRAL WYOMING

CITY           SKY/WX    TMP DP  RH WIND       PRES   REMARKS
BIG PINEY      FAIR      81  23  11 SW8       30.42F
PINEDALE       FAIR      79  18  10 NW5       30.43F
DUBOIS         FAIR      79  21  11 CALM      30.41S
LANDER         FAIR      87  27  11 VRB3      30.28F
RIVERTON       FAIR      87  27  11 NE9       30.31F
CASPER         FAIR      85  22  10 CALM      30.30F
DOUGLAS        FAIR      90  37  15 NE10      30.28F

$$
WYZ021-027>030-104>119-310000-
SOUTHERN WYOMING

CITY           SKY/WX    TMP DP  RH WIND       PRES   REMARKS
EVANSTON       FAIR      82  18   9 W12G17    30.42F
KEMMERER       FAIR      81  19  10 NW12G17   30.45S
FORT BRIDGER   CLEAR     86  12   6 W13G18    30.44F
ROCK SPRINGS   FAIR      83  20   9 SW12      30.38F
DIXON          FAIR      88   9   5 SW6       30.39F
RAWLINS        FAIR      84  16   8 MISG      30.39F
SARATOGA       FAIR      82  21  10 N8        30.41S
LARAMIE        FAIR      81  24  12 VRB7G16   30.42F
CHEYENNE       FAIR      82  40  22 NE9       30.35F
TORRINGTON     FAIR      89  43  20 S8        30.23F
PINE BLUFFS    FAIR      86  37  17 N7        30.29F

$$


USA.gov is the U.S. government's official web portal to all federal, state and local government web resources and services.